This is the latest recevied weather packets stored in our database for station/object KB0BDN-13. If no packets are shown the sender has not sent any weather packets the latest 10 day(s).
| Time | Temp. | Humidity | Pressure | Rain* | Wind** | Luminosity | Snow |
|---|---|---|---|---|---|---|---|
| 1788519694 | 13.89° C | 99% | 1006.4 hPa | 0 mm | - | - | - |
| 1788519552 | 13.89° C | 99% | 1006.4 hPa | 0 mm | - | - | - |
| 1788518794 | 13.89° C | 99% | 1006.4 hPa | 0 mm | - | - | - |
| 1788518652 | 13.89° C | 99% | 1006.4 hPa | 0 mm | - | - | - |
| 1788517894 | 13.89° C | 99% | 1006.4 hPa | 0 mm | - | - | - |
| 1788516994 | 13.89° C | 99% | 1006.1 hPa | 0 mm | - | - | - |
| 1788516852 | 13.89° C | 99% | 1006.4 hPa | 0 mm | - | - | - |
| 1788516094 | 13.89° C | 99% | 1006.4 hPa | 0 mm | - | - | - |
| 1788515194 | 13.89° C | 99% | 1005.5 hPa | 0 mm | - | - | - |
| 1788514294 | 13.89° C | 98% | 1005.4 hPa | 0 mm | - | - | - |
| 1788514152 | 13.89° C | 99% | 1005.3 hPa | 0 mm | - | - | - |
| 1788513393 | 13.89° C | 99% | 1005.3 hPa | 0 mm | - | - | - |
| 1788513252 | 13.89° C | 99% | 1005.8 hPa | 0 mm | - | - | - |
| 1788512493 | 13.89° C | 99% | 1005.8 hPa | 0 mm | - | - | - |
| 1788512351 | 13.89° C | 98% | 1005.5 hPa | 0.25 mm | - | - | - |
| 1788511596 | 13.89° C | 98% | 1005.5 hPa | 0.25 mm | - | - | - |
| 1788510695 | 13.89° C | 98% | 1005.4 hPa | 0.25 mm | - | - | - |
| 1788509795 | 13.33° C | 98% | 1005.7 hPa | 0.51 mm | - | - | - |
| 1788509654 | 13.33° C | 98% | 1005.3 hPa | 0.51 mm | - | - | - |
| 1788508895 | 13.33° C | 98% | 1005.3 hPa | 0.51 mm | - | - | - |
| 1788507995 | 13.33° C | 98% | 1006 hPa | 1.52 mm | - | - | - |
| 1788507095 | 13.89° C | 98% | 1006.8 hPa | 1.27 mm | - | - | - |
| 1788506954 | 13.89° C | 98% | 1006.9 hPa | 2.03 mm | - | - | - |
| 1788506195 | 13.89° C | 98% | 1006.9 hPa | 1.78 mm | - | - | - |
| 1788506054 | 13.89° C | 98% | 1006.8 hPa | 1.78 mm | - | - | - |
* Rain latest hour (hover to see other rain measurements)
** Current wind speed in m/s (hover to see current wind gust speed)